GW6595 Weather Reports


Display with metric or nautical units.
time (UTC)temp
F
wind
direction
speed
MPH
gust
MPH
rain 1hr
in
rain 24hr
in
rain mn
in
humidity
%
barometer
mb
20260504081529 54 90 5.0 0.0 0.00 0.00 0.00 67 1015.8
20260504081400 54 112 4.0 0.0 0.00 0.00 0.00 67 1015.8
20260504080800 54 45 4.0 0.0 0.00 0.00 0.00 66 1015.8
20260504080702 54 90 5.0 0.0 0.00 0.00 0.00 66 1015.8
20260504070407 54 112 3.0 0.0 0.00 0.00 0.00 69 1016.2
20260504050305 56 112 4.0 0.0 0.00 0.00 0.00 64 1017.0
20260504050150 56 68 4.0 0.0 0.00 0.00 0.00 64 1017.0
20260504045550 56 202 5.0 0.0 0.00 0.00 0.00 64 1017.0
20260504045454 56 135 5.0 0.0 0.00 0.00 0.00 64 1017.0
20260504044758 56 90 4.0 0.0 0.00 0.00 0.00 64 1016.9
20260504044055 57 45 4.0 0.0 0.00 0.00 0.00 62 1016.9
20260504043455 57 112 4.0 0.0 0.00 0.00 0.00 61 1016.9
20260504043328 57 158 4.0 0.0 0.00 0.00 0.00 61 1017.0
20260504042728 57 68 4.0 0.0 0.00 0.00 0.00 60 1017.0
20260504042025 57 135 4.0 0.0 0.00 0.00 0.00 60 1016.9
20260504041924 0 22 3.0 0.0 0.00 0.00 0.00 60 1016.8
20260504041324 57 112 4.0 0.0 0.00 0.00 0.00 60 1016.8
20260504041203 58 45 3.0 0.0 0.00 0.00 0.00 60 1016.7
20260504040458 58 158 4.0 0.0 0.00 0.00 0.00 60 1016.7
20260504035858 58 112 4.0 0.0 0.00 0.00 0.00 60 1016.7
20260504035753 58 22 3.0 0.0 0.00 0.00 0.00 60 1016.8
20260504035153 58 112 3.0 0.0 0.00 0.00 0.00 59 1016.8
20260504035037 58 135 2.0 0.0 0.00 0.00 0.00 59 1016.8
20260504034437 58 202 5.0 0.0 0.00 0.00 0.00 58 1016.8
20260504034330 58 112 4.0 0.0 0.00 0.00 0.00 58 1016.8
20260504033731 58 90 6.0 0.0 0.00 0.00 0.00 56 1016.8
20260504033359 59 45 3.0 0.0 0.00 0.00 0.00 55 1016.9
20260504032759 59 135 4.0 0.0 0.00 0.00 0.00 54 1016.9
20260504032728 59 112 5.0 0.0 0.00 0.00 0.00 54 1017.0
20260504032128 59 90 5.0 0.0 0.00 0.00 0.00 54 1017.0
20260504032030 59 135 4.0 0.0 0.00 0.00 0.00 54 1017.1
20260504031429 59 112 3.0 0.0 0.00 0.00 0.00 54 1017.1
20260504031327 59 180 4.0 0.0 0.00 0.00 0.00 54 1017.3
20260504030727 59 112 3.0 0.0 0.00 0.00 0.00 55 1017.3
20260504030646 58 112 4.0 0.0 0.00 0.00 0.00 55 1017.4
20260504030046 58 112 3.0 0.0 0.00 0.00 0.00 58 1017.4
20260504030000 56 112 4.0 0.0 0.00 0.00 0.00 58 1017.5
20260504025400 56 112 3.0 0.0 0.00 0.00 0.00 61 1017.5
20260504024632 56 112 0.0 0.0 0.00 0.00 0.00 63 1017.6
20260504024541 56 112 0.0 0.0 0.00 0.00 0.00 63 1017.5
20260504023940 56 135 0.0 0.0 0.00 0.00 0.00 64 1017.5
20260504023838 0 158 0.0 0.0 0.00 0.00 0.00 64
20260504023237 56 135 0.0 0.0 0.00 0.00 0.00 65 1017.5
20260504023133 56 112 0.0 0.0 0.00 0.00 0.00 66 1017.4
20260504022534 56 112 0.0 0.0 0.00 0.00 0.00 67 1017.4
20260504022152 56 112 0.0 0.0 0.00 0.00 0.00 67 1017.5
20260504022049 55 112 0.0 0.0 0.00 0.00 0.00 67 1017.4
20260504021334 55 90 0.0 0.0 0.00 0.00 0.00 68 1017.4
20260504020038 54 112 0.0 0.0 0.00 0.00 0.00 68 1017.4
20260504015912 54 112 0.0 0.0 0.00 0.00 0.00 68 1017.4
20260504014615 54 202 0.0 0.0 0.00 0.00 0.00 64 1017.4
20260504014445 54 202 0.0 0.0 0.00 0.00 0.00 63 1017.1
20260504013845 54 180 0.0 0.0 0.00 0.00 0.00 62 1017.1
20260504013724 0 180 0.0 0.0 0.00 0.00 0.00 62 1016.9
20260504013015 55 158 0.0 0.0 0.00 0.00 0.00 63 1016.9
20260504012415 55 180 0.0 0.0 0.00 0.00 0.00 60 1016.9
20260504012254 55 180 0.0 0.0 0.00 0.00 0.00 60 1016.8
20260504011654 55 202 0.0 0.0 0.00 0.00 0.00 59 1016.8
20260504011554 56 202 0.0 0.0 0.00 0.00 0.00 60 1016.7
20260504010954 56 112 0.0 0.0 0.00 0.00 0.00 60 1016.7
20260504010251 56 112 0.0 0.0 0.00 0.00 0.00 58 1016.6
20260504005539 57 180 0.0 0.0 0.00 0.00 0.00 56 1016.6
20260504005436 57 180 0.0 0.0 0.00 0.00 0.00 56 1016.5
20260504004836 57 270 0.0 0.0 0.00 0.00 0.00 56 1016.5
20260504004734 58 270 0.0 0.0 0.00 0.00 0.00 55 1016.5
20260504004134 58 112 0.0 0.0 0.00 0.00 0.00 55 1016.5
20260504004028 59 180 0.0 0.0 0.00 0.00 0.00 55 1016.3
20260504003038 59 270 0.0 0.0 0.00 0.00 0.00 53 1016.3
20260504002223 60 135 0.0 0.0 0.00 0.00 0.00 51 1016.2
20260504001815 60 270 0.0 0.0 0.00 0.00 0.00 50 1016.3
20260504001013 61 248 0.0 0.0 0.00 0.00 0.00 47 1016.3
20260504000644 62 270 0.0 0.0 0.00 0.00 0.00 45 1016.3
20260504000254 62 248 0.0 0.0 0.00 0.00 0.00 43 1016.3
20260503235928 63 270 0.0 0.0 0.00 0.00 0.00 40 1016.2
20260503235835 63 225 0.0 0.0 0.00 0.00 0.00 40 1016.4
20260503234539 65 270 2.0 0.0 0.00 0.00 0.00 41 1016.3
20260503234215 65 248 3.0 0.0 0.00 0.00 0.00 39 1016.3
20260503233818 66 270 3.0 0.0 0.00 0.00 0.00 39 1016.3
20260503233438 66 338 3.0 0.0 0.00 0.00 0.00 39 1016.3
20260503233118 67 270 0.0 0.0 0.00 0.00 0.00 39 1016.3
20260503232735 66 292 3.0 0.0 0.00 0.00 0.00 38 1016.3
20260503232410 67 225 4.0 0.0 0.00 0.00 0.00 39 1016.3
20260503232044 66 270 4.0 0.0 0.00 0.00 0.00 38 1016.4
20260503231713 67 180 3.0 0.0 0.00 0.00 0.00 38 1016.4
20260503231340 67 315 3.0 0.0 0.00 0.00 0.00 37 1016.4
20260503231019 67 22 5.0 0.0 0.00 0.00 0.00 38 1016.4
20260503230953 0 225 4.0 0.0 0.00 0.00 0.00 38
20260503230624 67 270 4.0 0.0 0.00 0.00 0.00 37 1016.4
20260503230304 68 225 3.0 0.0 0.00 0.00 0.00 37 1016.5
20260503225622 69 270 2.0 0.0 0.00 0.00 0.00 39 1016.3
20260503225243 69 68 2.0 0.0 0.00 0.00 0.00 38 1016.4
20260503224915 70 270 2.0 0.0 0.00 0.00 0.00 37 1016.3
20260503224549 69 45 0.0 0.0 0.00 0.00 0.00 37 1016.3
20260503224224 69 202 4.0 0.0 0.00 0.00 0.00 38 1016.3
20260503223819 68 315 3.0 0.0 0.00 0.00 0.00 36 1016.5
20260503223453 68 270 3.0 0.0 0.00 0.00 0.00 36 1016.5
20260503223129 67 270 6.0 0.0 0.00 0.00 0.00 36 1016.5
20260503222806 69 248 3.0 0.0 0.00 0.00 0.00 38 1016.4
20260503222015 69 225 2.0 0.0 0.00 0.00 0.00 38 1016.5
20260503221654 68 248 4.0 0.0 0.00 0.00 0.00 37 1016.6
20260503221334 69 180 6.0 0.0 0.00 0.00 0.00 37 1016.6
20260503220623 68 270 7.0 0.0 0.00 0.00 0.00 37 1016.8
20260503220302 70 270 2.0 0.0 0.00 0.00 0.00 38 1016.6
20260503215943 70 158 3.0 0.0 0.00 0.00 0.00 39 1016.6
20260503215619 70 112 2.0 0.0 0.00 0.00 0.00 39 1016.5
20260503215258 69 180 3.0 0.0 0.00 0.00 0.00 38 1016.7
20260503214932 69 270 4.0 0.0 0.00 0.00 0.00 38 1016.7
20260503214612 70 292 4.0 0.0 0.00 0.00 0.00 38 1016.6
20260503214247 69 248 3.0 0.0 0.00 0.00 0.00 37 1016.6
20260503213927 69 225 5.0 0.0 0.00 0.00 0.00 38 1016.8
20260503213544 70 0 2.0 0.0 0.00 0.00 0.00 37 1016.7
20260503213220 69 202 4.0 0.0 0.00 0.00 0.00 38 1016.8
20260503213134 68 68 3.0 0.0 0.00 0.00 0.00 38 1017.0
20260503212534 68 270 3.0 0.0 0.00 0.00 0.00 37 1017.0
20260503212214 69 225 3.0 0.0 0.00 0.00 0.00 38 1017.1
20260503211801 69 270 5.0 0.0 0.00 0.00 0.00 37 1017.2
20260503211440 69 248 2.0 0.0 0.00 0.00 0.00 37 1017.2
20260503211351 69 315 5.0 0.0 0.00 0.00 0.00 37 1017.1
20260503210751 69 270 6.0 0.0 0.00 0.00 0.00 37 1017.1
20260503210431 69 338 1.0 0.0 0.00 0.00 0.00 36 1017.2
20260503205750 68 338 2.0 0.0 0.00 0.00 0.00 35 1017.4
20260503205322 0 248 7.0 0.0 0.00 0.00 0.00 37 1017.3
20260503204723 69 225 3.0 0.0 0.00 0.00 0.00 37 1017.3
20260503204402 70 292 5.0 0.0 0.00 0.00 0.00 38 1017.2
20260503204042 69 45 1.0 0.0 0.00 0.00 0.00 37 1017.4
20260503203346 68 68 3.0 0.0 0.00 0.00 0.00 38 1017.5
20260503203013 68 292 0.0 0.0 0.00 0.00 0.00 36 1017.6
20260503202654 67 270 5.0 0.0 0.00 0.00 0.00 38 1017.9
20260503202332 67 270 7.0 0.0 0.00 0.00 0.00 38 1017.9
20260503202005 67 202 6.0 0.0 0.00 0.00 0.00 39 1018.0
20260503201645 66 270 6.0 0.0 0.00 0.00 0.00 38 1018.2
20260503201320 66 248 9.0 0.0 0.00 0.00 0.00 38 1018.2
20260503200940 66 248 5.0 0.0 0.00 0.00 0.00 40 1018.2
20260503200619 67 270 4.0 0.0 0.00 0.00 0.00 39 1018.2
20260503200248 68 315 4.0 0.0 0.00 0.00 0.00 40 1018.2
20260503195923 68 270 3.0 0.0 0.00 0.00 0.00 40 1018.2
20260503195204 67 202 4.0 0.0 0.00 0.00 0.00 39 1018.5
20260503194513 66 202 4.0 0.0 0.00 0.00 0.00 42 1018.8
20260503193947 66 248 5.0 0.0 0.00 0.00 0.00 42 1018.9
20260503193621 66 248 7.0 0.0 0.00 0.00 0.00 41 1018.9
20260503193250 67 315 4.0 0.0 0.00 0.00 0.00 40 1018.9
20260503192923 66 248 2.0 0.0 0.00 0.00 0.00 40 1019.1
20260503192148 67 315 4.0 0.0 0.00 0.00 0.00 42 1019.2
20260503191753 67 248 6.0 0.0 0.00 0.00 0.00 43 1019.2
20260503190730 66 270 9.0 0.0 0.00 0.00 0.00 41 1019.4
20260503190358 67 292 4.0 0.0 0.00 0.00 0.00 40 1019.4
20260503190033 68 45 2.0 0.0 0.00 0.00 0.00 43 1019.2
20260503185652 66 45 5.0 0.0 0.00 0.00 0.00 42 1019.5
20260503185323 68 202 3.0 0.0 0.00 0.00 0.00 43 1019.2
20260503184954 67 270 3.0 0.0 0.00 0.00 0.00 43 1019.4
20260503184621 66 270 4.0 0.0 0.00 0.00 0.00 42 1019.6
20260503183918 64 270 5.0 0.0 0.00 0.00 0.00 40 1019.9
20260503183558 65 292 5.0 0.0 0.00 0.00 0.00 39 1019.8
20260503183238 65 248 5.0 0.0 0.00 0.00 0.00 40 1019.7
20260503182544 67 225 2.0 0.0 0.00 0.00 0.00 40 1019.7
20260503182205 66 22 3.0 0.0 0.00 0.00 0.00 39 1019.8
20260503181831 64 248 6.0 0.0 0.00 0.00 0.00 39 1020.0
20260503181448 67 45 4.0 0.0 0.00 0.00 0.00 40 1019.7
20260503181122 67 338 3.0 0.0 0.00 0.00 0.00 39 1019.7
20260503180802 67 45 3.0 0.0 0.00 0.00 0.00 39 1019.8
20260503180442 64 270 4.0 0.0 0.00 0.00 0.00 38 1020.0
20260503180121 65 270 6.0 0.0 0.00 0.00 0.00 39 1019.9
20260503175756 64 270 5.0 0.0 0.00 0.00 0.00 40 1020.1
20260503175347 65 248 5.0 0.0 0.00 0.00 0.00 39 1020.1
20260503175305 65 248 4.0 0.0 0.00 0.00 0.00 39 1020.2
20260503174705 65 270 3.0 0.0 0.00 0.00 0.00 39 1020.2
20260503174344 66 135 3.0 0.0 0.00 0.00 0.00 39 1020.1
20260503174009 65 22 3.0 0.0 0.00 0.00 0.00 39 1020.4
20260503173642 64 225 6.0 0.0 0.00 0.00 0.00 38 1020.5
20260503173313 66 202 2.0 0.0 0.00 0.00 0.00 39 1020.4
20260503172953 65 338 6.0 0.0 0.00 0.00 0.00 39 1020.4
20260503172622 64 225 3.0 0.0 0.00 0.00 0.00 39 1020.6
20260503172301 63 270 4.0 0.0 0.00 0.00 0.00 40 1020.6
20260503171937 64 248 6.0 0.0 0.00 0.00 0.00 40 1020.7
20260503171607 64 202 5.0 0.0 0.00 0.00 0.00 41 1020.8
20260503170921 64 0 5.0 0.0 0.00 0.00 0.00 42 1020.8
20260503170602 63 270 7.0 0.0 0.00 0.00 0.00 40 1020.8
20260503170240 64 225 2.0 0.0 0.00 0.00 0.00 41 1020.8
20260503150843 61 225 3.0 0.0 0.00 0.00 0.00 52 1021.7
20260503140149 58 338 2.0 0.0 0.00 0.00 0.00 64 1021.6
20260503131316 51 180 0.0 0.0 0.00 0.00 0.00 84 1022.0
20260503130602 49 68 0.0 0.0 0.00 0.00 0.00 85 1022.0
20260503130230 0 112 2.0 0.0 0.00 0.00 0.00 86
20260503110739 41 158 0.0 0.0 0.00 0.00 0.00 93 1021.8
20260503110409 41 225 0.0 0.0 0.00 0.00 0.00 93 1021.9